• în România
  • Lista ţărilor
  • Pe 7 zile
  • Temperatura apei
  • Hartă satelitară
  • Meteo pe hartă
  • Widget-uri
  • user-avatar
    Intrare

    Meteo pe oră la Karamyshevo

    Astăzi, 17 Iulie, Marţi

    Timp Temperatura Precipitaţii Vânt Presiune Umiditate
    00:00 +19°C° 0 mm 2 m/s 744 mmHg 85%
    01:00 +18°C° 0 mm 2 m/s 744 mmHg 87%
    02:00 +18°C° 0 mm 2 m/s 744 mmHg 88%
    03:00 +18°C° 0 mm 3 m/s 744 mmHg 85%
    04:00 +19°C° 0 mm 3 m/s 744 mmHg 83%
    05:00 +19°C° 0 mm 3 m/s 744 mmHg 80%
    06:00 +21°C° 0 mm 4 m/s 744 mmHg 73%
    07:00 +23°C° 0 mm 4 m/s 744 mmHg 66%
    08:00 +25°C° 0 mm 5 m/s 744 mmHg 58%
    09:00 +26°C° 0 mm 5 m/s 744 mmHg 55%
    10:00 +27°C° 0 mm 5 m/s 744 mmHg 51%
    11:00 +28°C° 0 mm 5 m/s 744 mmHg 47%
    12:00 +29°C° 0 mm 5 m/s 744 mmHg 46%
    13:00 +29°C° 0 mm 6 m/s 743 mmHg 45%
    14:00 +29°C° 0 mm 6 m/s 743 mmHg 43%
    15:00 +29°C° 0 mm 5 m/s 743 mmHg 45%
    16:00 +29°C° 0 mm 5 m/s 743 mmHg 47%
    17:00 +28°C° 0 mm 4 m/s 742 mmHg 48%
    18:00 +27°C° 0 mm 4 m/s 742 mmHg 54%
    19:00 +25°C° 0 mm 4 m/s 742 mmHg 59%
    20:00 +22°C° 0 mm 3 m/s 742 mmHg 64%
    21:00 +22°C° 0 mm 3 m/s 742 mmHg 65%
    22:00 +21°C° 0 mm 3 m/s 742 mmHg 67%
    23:00 +21°C° 0 mm 4 m/s 742 mmHg 68%

    Mâine, 18 Iulie, Miercuri

    Timp Temperatura Precipitaţii Vânt Presiune Umiditate
    00:00 +21°C° 0 mm 4 m/s 742 mmHg 70%
    01:00 +20°C° 0 mm 4 m/s 742 mmHg 72%
    02:00 +20°C° 0 mm 4 m/s 742 mmHg 74%
    03:00 +20°C° 0,2 mm 4 m/s 742 mmHg 76%
    04:00 +20°C° 0,2 mm 4 m/s 742 mmHg 78%
    05:00 +19°C° 0,2 mm 4 m/s 742 mmHg 80%
    06:00 +20°C° 0,1 mm 5 m/s 742 mmHg 76%
    07:00 +21°C° 0,1 mm 5 m/s 741 mmHg 72%
    08:00 +22°C° 0,1 mm 5 m/s 741 mmHg 68%
    09:00 +25°C° 0 mm 5 m/s 741 mmHg 64%
    10:00 +26°C° 0 mm 5 m/s 741 mmHg 60%
    11:00 +27°C° 0 mm 6 m/s 741 mmHg 56%
    12:00 +27°C° 0,7 mm 5 m/s 741 mmHg 60%
    13:00 +27°C° 0,7 mm 5 m/s 741 mmHg 64%
    14:00 +27°C° 0,7 mm 5 m/s 741 mmHg 68%
    15:00 +26°C° 0,5 mm 5 m/s 741 mmHg 71%
    16:00 +25°C° 0,5 mm 5 m/s 741 mmHg 75%
    17:00 +25°C° 0,5 mm 4 m/s 741 mmHg 79%
    18:00 +23°C° 0,1 mm 4 m/s 741 mmHg 80%
    19:00 +22°C° 0,1 mm 4 m/s 741 mmHg 81%
    20:00 +21°C° 0,1 mm 4 m/s 741 mmHg 82%
    21:00 +20°C° 0 mm 4 m/s 741 mmHg 83%
    22:00 +20°C° 0 mm 4 m/s 741 mmHg 84%
    23:00 +19°C° 0 mm 4 m/s 741 mmHg 85%

    Poimâine, 19 Iulie, Joi

    Timp Temperatura Precipitaţii Vânt Presiune Umiditate
    00:00 +19°C° 0 mm 4 m/s 741 mmHg 85%
    01:00 +19°C° 0 mm 4 m/s 741 mmHg 84%
    02:00 +19°C° 0 mm 4 m/s 741 mmHg 84%
    03:00 +19°C° 0 mm 4 m/s 741 mmHg 84%
    04:00 +20°C° 0 mm 4 m/s 741 mmHg 83%
    05:00 +20°C° 0 mm 4 m/s 741 mmHg 83%
    06:00 +20°C° 0 mm 4 m/s 741 mmHg 80%
    07:00 +21°C° 0 mm 4 m/s 741 mmHg 77%
    08:00 +22°C° 0 mm 5 m/s 741 mmHg 74%
    09:00 +22°C° 0 mm 5 m/s 741 mmHg 74%
    10:00 +22°C° 0 mm 5 m/s 741 mmHg 74%
    11:00 +22°C° 0 mm 5 m/s 741 mmHg 74%
    12:00 +23°C° 0,1 mm 5 m/s 741 mmHg 73%
    13:00 +23°C° 0,1 mm 5 m/s 741 mmHg 72%
    14:00 +25°C° 0,1 mm 5 m/s 741 mmHg 71%
    15:00 +23°C° 0,2 mm 5 m/s 740 mmHg 73%
    16:00 +23°C° 0,2 mm 4 m/s 740 mmHg 74%
    17:00 +23°C° 0,2 mm 4 m/s 740 mmHg 76%
    18:00 +23°C° 0,1 mm 4 m/s 740 mmHg 80%
    19:00 +22°C° 0,1 mm 4 m/s 740 mmHg 83%
    20:00 +21°C° 0,1 mm 3 m/s 740 mmHg 87%
    21:00 +20°C° 0 mm 3 m/s 740 mmHg 89%
    22:00 +20°C° 0 mm 4 m/s 740 mmHg 91%
    23:00 +19°C° 0 mm 4 m/s 740 mmHg 94%

    20 Iulie, Vineri

    Timp Temperatura Precipitaţii Vânt Presiune Umiditate
    00:00 +19°C° 0 mm 4 m/s 740 mmHg 95%
    01:00 +19°C° 0 mm 4 m/s 740 mmHg 96%
    02:00 +18°C° 0 mm 4 m/s 740 mmHg 97%
    03:00 +19°C° 0 mm 4 m/s 740 mmHg 96%
    04:00 +19°C° 0 mm 4 m/s 740 mmHg 95%
    05:00 +19°C° 0 mm 4 m/s 740 mmHg 94%
    06:00 +20°C° 0 mm 4 m/s 740 mmHg 92%
    07:00 +20°C° 0 mm 4 m/s 740 mmHg 90%
    08:00 +21°C° 0 mm 5 m/s 741 mmHg 88%
    09:00 +21°C° 0,3 mm 4 m/s 741 mmHg 85%
    10:00 +22°C° 0,3 mm 4 m/s 741 mmHg 83%
    11:00 +23°C° 0,3 mm 4 m/s 741 mmHg 81%
    12:00 +23°C° 0,9 mm 4 m/s 741 mmHg 81%
    13:00 +25°C° 0,9 mm 5 m/s 741 mmHg 80%
    14:00 +25°C° 0,9 mm 5 m/s 741 mmHg 80%
    15:00 +25°C° 0,7 mm 5 m/s 740 mmHg 80%
    16:00 +25°C° 0,7 mm 4 m/s 740 mmHg 81%
    17:00 +25°C° 0,7 mm 4 m/s 740 mmHg 82%
    18:00 +23°C° 1 mm 4 m/s 740 mmHg 85%
    19:00 +22°C° 1 mm 3 m/s 740 mmHg 88%
    20:00 +21°C° 1 mm 3 m/s 740 mmHg 91%
    21:00 +21°C° 0,3 mm 3 m/s 740 mmHg 92%
    22:00 +20°C° 0,3 mm 3 m/s 740 mmHg 94%
    23:00 +20°C° 0,3 mm 3 m/s 740 mmHg 96%

    21 Iulie, Sâmbătă

    Timp Temperatura Precipitaţii Vânt Presiune Umiditate
    00:00 +19°C° 0 mm 3 m/s 740 mmHg 97%
    01:00 +19°C° 0 mm 3 m/s 740 mmHg 97%
    02:00 +19°C° 0 mm 3 m/s 740 mmHg 97%
    03:00 +19°C° 0 mm 3 m/s 740 mmHg 97%
    04:00 +19°C° 0 mm 3 m/s 740 mmHg 96%
    05:00 +20°C° 0 mm 3 m/s 740 mmHg 96%
    06:00 +21°C° 0 mm 3 m/s 740 mmHg 92%
    07:00 +22°C° 0 mm 3 m/s 740 mmHg 87%
    08:00 +23°C° 0 mm 4 m/s 740 mmHg 83%
    09:00 +25°C° 0,4 mm 4 m/s 740 mmHg 81%
    10:00 +26°C° 0,4 mm 4 m/s 740 mmHg 78%
    11:00 +27°C° 0,4 mm 4 m/s 740 mmHg 76%
    12:00 +28°C° 0,8 mm 4 m/s 740 mmHg 75%
    13:00 +28°C° 0,8 mm 4 m/s 740 mmHg 74%
    14:00 +28°C° 0,8 mm 4 m/s 740 mmHg 74%
    15:00 +27°C° 0,8 mm 4 m/s 740 mmHg 77%
    16:00 +26°C° 0,8 mm 4 m/s 740 mmHg 81%
    17:00 +25°C° 0,8 mm 4 m/s 740 mmHg 85%
    18:00 +25°C° 0 mm 3 m/s 739 mmHg 87%
    19:00 +24°C° 0 mm 3 m/s 739 mmHg 88%
    20:00 +22°C° 0 mm 3 m/s 739 mmHg 90%
    21:00 +22°C° 0,1 mm 3 m/s 739 mmHg 91%
    22:00 +21°C° 0,1 mm 3 m/s 739 mmHg 92%
    23:00 +21°C° 0,1 mm 3 m/s 739 mmHg 93%

    22 Iulie, Duminică

    Timp Temperatura Precipitaţii Vânt Presiune Umiditate
    00:00 +20°C° 0,4 mm 3 m/s 739 mmHg 94%
    01:00 +20°C° 0,4 mm 3 m/s 739 mmHg 96%
    02:00 +20°C° 0,4 mm 3 m/s 739 mmHg 97%
    03:00 +20°C° 0 mm 3 m/s 739 mmHg 97%
    04:00 +20°C° 0 mm 3 m/s 739 mmHg 96%
    05:00 +20°C° 0 mm 3 m/s 739 mmHg 96%
    06:00 +21°C° 0 mm 4 m/s 739 mmHg 93%
    07:00 +22°C° 0 mm 4 m/s 739 mmHg 90%
    08:00 +23°C° 0 mm 4 m/s 739 mmHg 88%
    09:00 +23°C° 0,4 mm 4 m/s 739 mmHg 86%
    10:00 +25°C° 0,4 mm 4 m/s 739 mmHg 85%
    11:00 +26°C° 0,4 mm 4 m/s 740 mmHg 84%
    12:00 +26°C° 0,8 mm 4 m/s 739 mmHg 82%
    13:00 +27°C° 0,8 mm 4 m/s 739 mmHg 80%
    14:00 +27°C° 0,8 mm 4 m/s 739 mmHg 77%
    15:00 +27°C° 0,8 mm 4 m/s 739 mmHg 79%
    16:00 +27°C° 0,8 mm 3 m/s 739 mmHg 81%
    17:00 +26°C° 0,8 mm 3 m/s 739 mmHg 83%
    18:00 +25°C° 0,9 mm 3 m/s 739 mmHg 87%
    19:00 +24°C° 0,9 mm 2 m/s 739 mmHg 90%
    20:00 +23°C° 0,9 mm 2 m/s 739 mmHg 93%
    21:00 +23°C° 1,1 mm 2 m/s 739 mmHg 95%
    22:00 +21°C° 1,1 mm 2 m/s 739 mmHg 96%
    23:00 +21°C° 1,1 mm 2 m/s 739 mmHg 97%
    Arată mai mult